Preview of NWS' New Version of Forecast
This preview is not operational and should not be used for support decisions.

Regional Weather Roundup (RWR)

Issued by National Weather Service (NWS)

                            
000
ASUS46 KSEW 222020
RWRWA 

WASHINGTON REGIONAL WEATHER ROUNDUP
NATIONAL WEATHER SERVICE SEATTLE WA
100 PM PDT SUN SEP 22 2019

NOTE:"FAIR" INDICATES FEW OR NO CLOUDS BELOW 12,000 FEET WITH NO 
SIGNIFICANT WEATHER AND/OR OBSTRUCTIONS TO VISIBILITY.

WAZ507-509-555>559-222100-
SEATTLE, TACOMA, EVERETT, AND VICINITY
  
CITY           SKY/WX    TMP DP  RH WIND       PRES   REMARKS
EVERETT        CLOUDY    60  58  92 S12       29.86S                  
BOEING FIELD   LGT RAIN  63  59  87 S9        29.86S                  
RENTON         LGT RAIN  64  58  80 S5        29.86S                  
SEATAC AIRPORT LGT RAIN  62  58  86 S6        29.87S                  
JBLM-MCCHORD   LGT RAIN  61  61 100 S5        29.87R FOG              
PUYALLUP       DRIZZLE   63  63 100 SW5       29.87R                  
BREMERTON      LGT RAIN  60  58  92 S8        29.86S FOG              
JBLM-FT LEWIS  LGT RAIN  62  62 100 SE6       29.85F                  
TACOMA NARROWS LGT RAIN  59  58  96 S3        29.86F FOG              
$$
 
WAZ001-503-506-510-514-515-222100-
NORTH INTERIOR
  
CITY           SKY/WX    TMP DP  RH WIND       PRES   REMARKS
BELLINGHAM     LGT RAIN  63  57  81 S7        29.83R                  
FRIDAY HARBOR  CLOUDY    60  58  92 S3        29.83S                  
EASTSOUND      CLOUDY    63  59  88 S10       29.81S                  
PORT ANGELES   CLOUDY    60  59  96 S3        29.82S                  
EDIZ HOOK      MOCLDY    58  56  95 CALM      29.82R                  
PORT TOWNSEND  CLOUDY    63  59  88 VRB8      29.81S                  
NAS WHIDBEY    LGT RAIN  65  59  81 SE16G23   29.86R                  
ARLINGTON      LGT RAIN  61  59  93 SE10      29.85F                  
BURLINGTON     CLOUDY    61  59  94 VRB7      29.84S                  
$$
 
WAZ020-022-039-040-504-511-512-222100-
SOUTHWEST INTERIOR
  
CITY           SKY/WX    TMP DP  RH WIND       PRES   REMARKS
SHELTON        LGT RAIN  62  59  90 SE3       29.83S                  
OLYMPIA        LGT RAIN  61  59  93 S9        29.86S FOG              
CHEHALIS       LGT RAIN  63  61  94 S10       29.87S                  
KELSO          CLOUDY    62  60  93 S12       29.88F                  
VANCOUVER      CLOUDY    63  58  83 VRB3      29.89S                  
SCAPPOOSE, OR  CLOUDY    62  60  93 SE6       29.88S                  
PORTLAND, OR   CLOUDY    64  59  83 S6        29.90S                  
$$
 
WAZ021-516-517-222100-
WASHINGTON COAST
  
CITY           SKY/WX    TMP DP  RH WIND       PRES   REMARKS
FORKS          CLOUDY    61  56  83 NW10      29.85R                  
HOQUIAM        LGT RAIN  60  60 100 W15       29.86R FOG              
ASTORIA, OR    CLOUDY    64  60  87 CALM      29.84R                  
$$
 
WAZ019-023-024-040-567>569-222100-
CASCADE MOUNTAINS AND COLUMBIA GORGE
  
CITY           SKY/WX    TMP DP  RH WIND       PRES   REMARKS
STAMPEDE PASS  CLOUDY    53  49  86 CALM      29.92S                  
TROUTDALE, OR  CLOUDY    64  58  80 CALM      29.90S                  
HOOD RIVER, OR LGT RAIN  61  57  88 CALM      29.90S                  
THE DALLES, OR LGT RAIN  63  58  83 NW5       29.89R                  
$$

WAZ026-027-041>044-520-521-222100-
EAST SLOPES
  
CITY           SKY/WX    TMP DP  RH WIND       PRES   REMARKS
OMAK           PTSUNNY   68  49  50 SW6       29.84F                  
WENATCHEE      CLOUDY    61  49  64 W6        29.86S                  
ELLENSBURG     CLOUDY    63  51  65 N6        29.86F                  
YAKIMA         CLOUDY    67  50  54 CALM      29.86S                  
SUNNYSIDE ARPT MOCLDY    70  54  56 CALM      29.85S                  
YAKIMA TC      MOCLDY    66  47  50 CALM      29.85S                  
$$

WAZ028-034-035-222100-
COLUMBIA BASIN
  
CITY           SKY/WX    TMP DP  RH WIND       PRES   REMARKS
EPHRATA        PTSUNNY   69  48  47 CALM      29.84F                  
MOSES LAKE     MOSUNNY   69  50  50 CALM      29.85F                  
PASCO          PTSUNNY   75  51  43 SW9       29.84S                  
RICHLAND ARPT  PTCLDY    77  52  42 S7        29.83                   
HERMISTON, OR  PTSUNNY   76  51  41 W9        29.84F                  
$$

WAZ036>038-222100-
NORTHEAST WASHINGTON
  
CITY           SKY/WX    TMP DP  RH WIND       PRES   REMARKS
SPOKANE GEIGER PTSUNNY   71  44  37 SW10      29.87F                  
SPOKANE FELTS  PTSUNNY   73  48  41 VRB3      29.86F                  
FAIRCHILD AFB  PTSUNNY   70  46  42 S10       29.87F                  
COEURDALENE,ID PTSUNNY   70  47  43 SE9       29.89F                  
DEER PARK      PTSUNNY   68  48  48 SE5       29.88F                  
$$

WAZ029>033-222100-
SOUTHEAST WASHINGTON
  
CITY           SKY/WX    TMP DP  RH WIND       PRES   REMARKS
PULLMAN        PTSUNNY   72  43  35 S10       29.90F                  
LEWISTON, ID   MOSUNNY   79  46  31 NE9       29.84F                  
WALLA WALLA    PTSUNNY   75  48  38 SW9       29.85F                  
PENDLETON, OR  PTSUNNY   73  49  42 W14       29.86S                  
$$